Tracking 35331 objects as of 16-Sep-2026
HD Live streaming from Space Station
objects crossing your sky now

SL-6 R/B(2)


SL-6 R/B(2) is no longer on orbit


NORAD ID: 14206
Int'l Code: 1983-073D
Launch date: July 19, 1983
Source: Commonwealth of Independent States (former USSR) (CIS)
Launch site: TYURATAM MISSILE AND SPACE COMPLEX (TTMTR)
Decay date: 1990-02-03

Note: This is a ROCKET BODY
Your satellite tracking list
Your tracking list is empty




NASA's NSSDC Master Catalog

Two Line Element Set (TLE):
1 14206U 83073  D 90034.45237209  .48359907 +39895-4 +26542-3 0  9997
2 14206 063.7285 183.1821 0131746 255.6571 103.0254 16.34487409064587
Source of the keplerian elements: AFSPC